Tracking 33200 objects as of 17-Feb-2026
HD Live streaming from Space Station
objects crossing your sky now

METEOR 1-17 DEB

Track METEOR 1-17 DEB now!
10-day predictions


NORAD ID: 57538
Int'l Code: 1974-025D
Perigee: 810.2 km
Apogee: 825.7 km
Inclination: 81.2 °
Period: 101.1 minutes
Semi major axis: 7188 km
RCS: Unknown
Launch date: April 24, 1974
Source: Commonwealth of Independent States (former USSR) (CIS)
Launch site: PLESETSK MISSILE AND SPACE COMPLEX (PKMTR)

Note: This is SATELLITE DEBRIS
Your satellite tracking list
Your tracking list is empty




NASA's NSSDC Master Catalog

Two Line Element Set (TLE):
1 57538U 74025D   26048.39716602  .00005835  00000-0  25201-2 0  9993
2 57538  81.1914  41.6192 0010761 232.5361 127.4840 14.24308908133679
Source of the keplerian elements: AFSPC